GW1109 Weather Reports


time (UTC)temp
F
wind
direction
speed
knots
gust
knots
rain 1hr
in
rain 24hr
in
rain mn
in
humidity
%
barometer
mb
20260901174559 72 79 1.7 4.3 0.00 0.00 0.00 55 1018.0
20260901173054 71 123 0.9 7.0 0.00 0.00 0.00 55 1018.0
20260901171559 70 132 0.9 4.3 0.00 0.00 0.00 58 1017.9
20260901170101 69 172 1.7 6.1 0.00 0.00 0.00 56 1018.0
20260901164558 68 113 1.7 6.1 0.00 0.00 0.00 60 1018.0
20260901163056 68 103 1.7 3.5 0.00 0.00 0.00 62 1018.2
20260901161553 67 0 0.0 2.6 0.00 0.00 0.00 63 1018.2
20260901160103 67 71 0.9 4.3 0.00 0.00 0.00 65 1018.3
20260901154557 66 88 1.7 7.0 0.00 0.00 0.00 65 1018.4
20260901153107 66 360 0.9 5.2 0.00 0.00 0.00 66 1018.5
20260901151559 65 96 2.6 7.0 0.00 0.00 0.00 68 1018.3
20260901150058 64 340 0.9 7.0 0.00 0.00 0.00 69 1018.1
20260901144600 63 30 0.9 7.0 0.00 0.00 0.00 70 1018.3
20260901143055 63 61 0.9 4.3 0.00 0.00 0.00 70 1018.1
20260901141603 63 81 0.9 2.6 0.00 0.00 0.00 70 1018.2
20260901140059 62 0 0.9 3.5 0.00 0.00 0.00 70 1018.5
20260901134608 62 355 0.9 2.6 0.00 0.00 0.00 73 1018.8
20260901133051 61 26 0.0 2.6 0.00 0.00 0.00 74 1018.9
20260901131604 61 0 0.0 1.7 0.00 0.00 0.00 73 1018.6
20260901130057 61 0 0.0 2.6 0.00 0.00 0.00 74 1018.6
20260901124553 61 0 0.0 1.7 0.00 0.00 0.00 75 1018.6
20260901123107 61 0 0.0 2.6 0.00 0.00 0.00 75 1018.7
20260901121601 61 21 0.9 4.3 0.00 0.00 0.00 74 1018.7
20260901120058 61 0 0.0 2.6 0.00 0.00 0.00 73 1018.9
20260901114600 61 0 0.9 2.6 0.00 0.00 0.00 74 1018.7
20260901113053 61 0 0.0 2.6 0.00 0.00 0.00 75 1018.4
20260901111553 61 57 0.0 2.6 0.00 0.00 0.00 74 1018.1
20260901110109 61 0 1.7 4.3 0.00 0.00 0.00 73 1018.0
20260901104606 61 360 0.0 7.8 0.00 0.00 0.00 73 1017.8
20260901103058 61 0 0.0 3.5 0.00 0.00 0.00 76 1017.8
20260901101603 60 0 0.9 4.3 0.00 0.00 0.00 78 1017.4
20260901094559 60 0 0.0 4.3 0.00 0.00 0.00 87 1017.2
20260901093055 60 0 0.0 2.6 0.00 0.00 0.00 91 1017.4
20260901091550 60 0 0.0 2.6 0.00 0.00 0.00 95 1017.5
20260901090059 60 0 0.0 1.7 0.00 0.00 0.00 97 1017.5
20260901084559 59 0 0.0 1.7 0.00 0.00 0.00 98 1017.5
20260901083053 59 0 0.0 1.7 0.00 0.00 0.00 98 1017.5
20260901081550 59 0 0.0 2.6 0.00 0.00 0.00 98 1017.5
20260901080049 58 0 0.0 0.9 0.00 0.00 0.00 98 1017.8
20260901074559 59 0 0.0 1.7 0.00 0.00 0.00 97 1017.6
20260901073050 60 5 0.0 1.7 0.00 0.00 0.00 96 1017.8
20260901071557 60 0 0.0 0.0 0.00 0.00 0.00 98 1018.0
20260901070047 59 0 0.0 0.0 0.00 0.00 0.00 96 1018.3
20260901064556 60 0 0.0 0.0 0.00 0.00 0.00 97 1018.0
20260901063052 59 0 0.0 0.0 0.00 0.00 0.00 96 1018.0
20260901061601 59 0 0.0 0.0 0.00 0.00 0.00 95 1017.9
20260901060048 59 0 0.0 0.0 0.00 0.00 0.00 94 1018.0
20260901054558 60 0 0.0 0.0 0.00 0.00 0.00 94 1018.2
20260901053055 59 0 0.0 0.0 0.00 0.00 0.00 94 1018.2
20260901051549 60 0 0.0 0.0 0.00 0.00 0.00 92 1018.1
20260901044557 61 0 0.0 0.0 0.00 0.00 0.00 93 1018.0
20260901043052 60 0 0.0 0.0 0.00 0.00 0.00 93 1018.1
20260901041606 59 0 0.0 0.0 0.00 0.00 0.00 93 1018.2
20260901040110 58 0 0.0 1.7 0.00 0.00 0.00 91 1018.1
20260901034555 59 51 0.0 0.9 0.00 0.00 0.00 89 1018.2
20260901033049 60 0 0.0 1.7 0.00 0.00 0.00 89 1018.2
20260901031553 60 0 0.0 0.9 0.00 0.00 0.00 87 1018.3
20260901030051 60 0 0.0 2.6 0.00 0.00 0.00 87 1018.3
20260901024553 60 0 0.0 1.7 0.00 0.00 0.00 87 1018.2
20260901023050 60 252 0.0 1.7 0.00 0.00 0.00 87 1018.2
20260901021600 60 0 0.0 0.9 0.00 0.00 0.00 88 1018.3
20260901020059 59 0 0.0 0.0 0.00 0.00 0.00 87 1018.3
20260901014554 60 0 0.0 0.0 0.00 0.01 0.00 85 1018.4
20260901013045 60 0 0.0 0.0 0.00 0.01 0.00 83 1018.4
20260901011600 60 0 0.0 0.0 0.00 0.01 0.00 81 1018.4
20260901010056 61 0 0.0 0.0 0.00 0.01 0.00 80 1018.3
20260901004552 62 0 0.0 1.7 0.00 0.01 0.00 78 1018.3
20260901003045 62 196 0.0 3.5 0.00 0.01 0.00 76 1018.3
20260901001602 63 183 1.7 3.5 0.00 0.01 0.00 75 1018.3
20260901000104 63 0 0.0 2.6 0.00 0.01 0.00 73 1018.3
20260831234555 64 0 0.0 1.7 0.00 0.01 0.00 72 1018.2
20260831233049 65 0 0.9 4.3 0.00 0.01 0.00 70 1018.4
20260831231605 66 198 2.6 7.8 0.00 0.01 0.00 68 1018.5
20260831230055 67 184 2.6 6.1 0.00 0.01 0.00 65 1018.6
20260831224552 69 156 0.0 4.3 0.00 0.01 0.00 62 1018.6
20260831223049 70 0 1.7 5.2 0.00 0.01 0.00 60 1018.4
20260831221559 71 136 0.0 6.1 0.00 0.01 0.00 57 1018.5
20260831220055 71 211 1.7 7.0 0.00 0.01 0.00 56 1018.3
20260831214558 71 209 2.6 9.6 0.00 0.01 0.00 56 1018.2
20260831213059 72 134 2.6 9.6 0.00 0.01 0.00 54 1018.2
20260831211558 73 147 3.5 10.4 0.00 0.01 0.00 51 1018.3
20260831210051 73 202 3.5 8.7 0.00 0.01 0.00 50 1018.3
20260831204559 74 200 3.5 9.6 0.00 0.01 0.00 49 1018.4
20260831203046 75 173 2.6 9.6 0.00 0.01 0.00 48 1018.4
20260831201555 75 192 2.6 7.0 0.00 0.01 0.00 47 1018.3
20260831200055 75 135 2.6 9.6 0.00 0.01 0.00 47 1018.2
20260831194623 74 211 4.3 8.7 0.00 0.01 0.00 49 1018.5
20260831193058 75 181 2.6 12.2 0.00 0.01 0.00 47 1018.6
20260831191554 77 169 1.7 5.2 0.00 0.01 0.00 32 1018.8
20260831190057 76 222 0.0 9.6 0.00 0.01 0.00 37 1018.9
20260831184601 76 147 1.7 8.7 0.00 0.01 0.00 35 1019.1
20260831183057 76 221 2.6 7.0 0.00 0.01 0.00 33 1018.9
20260831181600 75 172 2.6 7.0 0.00 0.01 0.00 37 1018.9
20260831180101 74 167 4.3 7.8 0.00 0.01 0.00 42 1019.2